Darstellungsparameter: Aktuell verwendete Einstellungen:
Skalierung der Graphiken ... ?
xyx+y,   Skalierungsfaktor:      Skalierung: Modus: x, Faktor: 1
Darstellungszeitraum ... ?
Vom - - bis: - -   Zeitraum: 04.08.2020 - 04.08.2020
Min/Max/Avg-Anzeige ... ?
Zeige MMA aktuell
Zeige MMA Monat
Zeige MMA alles
Zeige --A aktuell
Zeige --A Monat
Zeige --A alles
Keine MMA-Anzeige
MMA:
Average (ber die Originaldaten)
MMA-Basis: 23.02.2003 - 19.08.2019
Quicknavigation für Darstellung... ?
Tage:      1T, 2T, 3T, 5T -1T -2T -3T -5T +1T +2T +3T +5T
Wochen: 1W, 2W, 3W -1W -2W -3W +1W +2W +3W
Monate: 1M, 3M, 6M -1M -3M -6M +1M +3M +6M
Jahre:    1J, 3J, 5J, 10J -1J -3J -5J -10J +1J +3J +5J +10J
Nutze für die Darstellung ... ?
Originaldaten oder Mittelwerte auf ...
Stundenbasis Tagesbasis Wochenbasis
Monatsbasis Jahresbasis      Datenbasis: Original-Daten
Darstellen als:
Statistik (Auto) Statistik J:M      Darstellung:
Zur Graphik,    zurück zur Übersicht aller Sensoren.
 
Tabellarische Datenbersicht: ?
 
Sensor: Nr:Datum:Temp:Feuchte:Taupunkt:
Aussen-T/F 1 04-08-2020 00:00:00 16.3 C 77 % 12.26 C
2 04-08-2020 00:05:00 16.3 C 77 % 12.26 C
3 04-08-2020 00:10:00 16.3 C 77 % 12.26 C
4 04-08-2020 00:15:00 16.3 C 78 % 12.46 C
5 04-08-2020 00:20:00 16.3 C 78 % 12.46 C
6 04-08-2020 00:25:00 16.3 C 79 % 12.65 C
7 04-08-2020 00:30:00 16.3 C 79 % 12.65 C
8 04-08-2020 00:35:00 16.3 C 80 % 12.85 C
9 04-08-2020 00:40:00 16.3 C 80 % 12.85 C
10 04-08-2020 00:45:00 16.3 C 80 % 12.85 C
11 04-08-2020 00:50:00 16.3 C 80 % 12.85 C
12 04-08-2020 00:55:00 16.3 C 80 % 12.85 C
13 04-08-2020 01:00:00 16.3 C 79 % 12.65 C
14 04-08-2020 01:05:00 16.2 C 79 % 12.56 C
15 04-08-2020 01:10:00 16.2 C 80 % 12.75 C
16 04-08-2020 01:15:00 16.2 C 80 % 12.75 C
17 04-08-2020 01:20:00 16.2 C 81 % 12.94 C
18 04-08-2020 01:25:00 16.2 C 81 % 12.94 C
19 04-08-2020 01:30:00 16.1 C 81 % 12.84 C
20 04-08-2020 01:35:00 16.1 C 81 % 12.84 C
21 04-08-2020 01:40:00 16.1 C 81 % 12.84 C
22 04-08-2020 01:45:00 16.1 C 81 % 12.84 C
23 04-08-2020 01:50:00 16.1 C 81 % 12.84 C
24 04-08-2020 01:55:00 16.2 C 82 % 13.13 C
25 04-08-2020 02:00:00 16.2 C 82 % 13.13 C
Sensor: Nr:Datum:Temp:Feuchte:Taupunkt:
Aussen-T/F 26 04-08-2020 02:05:00 16.2 C 82 % 13.13 C
27 04-08-2020 02:10:00 16.1 C 82 % 13.03 C
28 04-08-2020 02:15:00 16.2 C 82 % 13.13 C
29 04-08-2020 02:20:00 16.2 C 82 % 13.13 C
30 04-08-2020 02:25:00 16.2 C 81 % 12.94 C
31 04-08-2020 02:30:00 16.3 C 80 % 12.85 C
32 04-08-2020 02:35:00 16.3 C 80 % 12.85 C
33 04-08-2020 02:40:00 16.5 C 79 % 12.85 C
34 04-08-2020 02:45:00 16.6 C 79 % 12.95 C
35 04-08-2020 02:50:00 16.7 C 79 % 13.04 C
36 04-08-2020 02:55:00 16.8 C 78 % 12.94 C
37 04-08-2020 03:00:00 16.8 C 78 % 12.94 C
38 04-08-2020 03:05:00 16.8 C 78 % 12.94 C
39 04-08-2020 03:10:00 16.8 C 77 % 12.75 C
40 04-08-2020 03:15:00 16.9 C 77 % 12.84 C
41 04-08-2020 03:20:00 17.1 C 77 % 13.04 C
42 04-08-2020 03:25:00 17.1 C 76 % 12.84 C
43 04-08-2020 03:30:00 17.1 C 77 % 13.04 C
44 04-08-2020 03:35:00 17.1 C 76 % 12.84 C
45 04-08-2020 03:40:00 17.1 C 77 % 13.04 C
46 04-08-2020 03:45:00 17 C 77 % 12.94 C
47 04-08-2020 03:50:00 16.9 C 77 % 12.84 C
48 04-08-2020 03:55:00 16.9 C 78 % 13.04 C
49 04-08-2020 04:00:00 16.8 C 78 % 12.94 C
50 04-08-2020 04:05:00 16.7 C 78 % 12.85 C
Sensor: Nr:Datum:Temp:Feuchte:Taupunkt:
Aussen-T/F 51 04-08-2020 04:10:00 16.7 C 79 % 13.04 C
52 04-08-2020 04:15:00 16.6 C 79 % 12.95 C
53 04-08-2020 04:20:00 16.4 C 79 % 12.75 C
54 04-08-2020 04:25:00 16.3 C 80 % 12.85 C
55 04-08-2020 04:30:00 16.3 C 80 % 12.85 C
56 04-08-2020 04:35:00 16.2 C 80 % 12.75 C
57 04-08-2020 04:40:00 16.1 C 81 % 12.84 C
58 04-08-2020 04:45:00 15.9 C 81 % 12.65 C
59 04-08-2020 04:50:00 15.8 C 82 % 12.74 C
60 04-08-2020 04:55:00 15.7 C 83 % 12.82 C
61 04-08-2020 05:00:00 15.6 C 83 % 12.72 C
62 04-08-2020 05:05:00 15.6 C 83 % 12.72 C
63 04-08-2020 05:10:00 15.6 C 83 % 12.72 C
64 04-08-2020 05:15:00 15.7 C 83 % 12.82 C
65 04-08-2020 05:20:00 15.7 C 83 % 12.82 C
66 04-08-2020 05:25:00 15.7 C 83 % 12.82 C
67 04-08-2020 05:30:00 15.6 C 83 % 12.72 C
68 04-08-2020 05:35:00 15.6 C 83 % 12.72 C
69 04-08-2020 05:40:00 15.6 C 83 % 12.72 C
70 04-08-2020 05:45:00 15.6 C 83 % 12.72 C
71 04-08-2020 05:50:00 15.5 C 84 % 12.81 C
72 04-08-2020 05:55:00 15.4 C 84 % 12.71 C
73 04-08-2020 06:00:00 15.4 C 84 % 12.71 C
74 04-08-2020 06:05:00 15.4 C 84 % 12.71 C
75 04-08-2020 06:10:00 15.3 C 84 % 12.61 C
Sensor: Nr:Datum:Temp:Feuchte:Taupunkt:
Aussen-T/F 76 04-08-2020 06:15:00 15.3 C 84 % 12.61 C
77 04-08-2020 06:20:00 15.3 C 85 % 12.79 C
78 04-08-2020 06:25:00 15.3 C 85 % 12.79 C
79 04-08-2020 06:30:00 15.3 C 85 % 12.79 C
80 04-08-2020 06:35:00 15.3 C 85 % 12.79 C
81 04-08-2020 06:40:00 15.3 C 85 % 12.79 C
82 04-08-2020 06:45:00 15.3 C 85 % 12.79 C
83 04-08-2020 06:50:00 15.3 C 86 % 12.97 C
84 04-08-2020 06:55:00 15.4 C 86 % 13.07 C
85 04-08-2020 07:00:00 15.4 C 86 % 13.07 C
86 04-08-2020 07:05:00 15.4 C 86 % 13.07 C
87 04-08-2020 07:10:00 15.4 C 85 % 12.89 C
88 04-08-2020 07:15:00 15.5 C 85 % 12.99 C
89 04-08-2020 07:20:00 15.5 C 85 % 12.99 C
90 04-08-2020 07:25:00 15.5 C 85 % 12.99 C
91 04-08-2020 07:30:00 15.4 C 85 % 12.89 C
92 04-08-2020 07:35:00 15.4 C 85 % 12.89 C
93 04-08-2020 07:40:00 15.5 C 85 % 12.99 C
94 04-08-2020 07:45:00 15.5 C 85 % 12.99 C
95 04-08-2020 07:50:00 15.6 C 85 % 13.09 C
96 04-08-2020 07:55:00 15.6 C 85 % 13.09 C
97 04-08-2020 08:00:00 15.7 C 85 % 13.19 C
98 04-08-2020 08:05:00 15.7 C 84 % 13.01 C
99 04-08-2020 08:10:00 15.8 C 84 % 13.1 C
100 04-08-2020 08:15:00 15.9 C 83 % 13.02 C
Sensor: Nr:Datum:Temp:Feuchte:Taupunkt:
Aussen-T/F 101 04-08-2020 08:20:00 16 C 83 % 13.12 C
102 04-08-2020 08:25:00 16.2 C 83 % 13.31 C
103 04-08-2020 08:30:00 16.3 C 82 % 13.22 C
104 04-08-2020 08:35:00 16.4 C 82 % 13.32 C
105 04-08-2020 08:40:00 16.6 C 81 % 13.33 C
106 04-08-2020 08:45:00 16.7 C 80 % 13.23 C
107 04-08-2020 08:50:00 16.8 C 79 % 13.14 C
108 04-08-2020 08:55:00 16.8 C 79 % 13.14 C
109 04-08-2020 09:00:00 16.8 C 79 % 13.14 C
110 04-08-2020 09:05:00 16.8 C 78 % 12.94 C
111 04-08-2020 09:10:00 16.8 C 79 % 13.14 C
112 04-08-2020 09:15:00 16.8 C 79 % 13.14 C
113 04-08-2020 09:20:00 16.8 C 79 % 13.14 C
114 04-08-2020 09:25:00 16.8 C 79 % 13.14 C
115 04-08-2020 09:30:00 16.9 C 78 % 13.04 C
116 04-08-2020 09:35:00 17.1 C 79 % 13.43 C
117 04-08-2020 09:40:00 17.3 C 77 % 13.23 C
118 04-08-2020 09:45:00 17.4 C 77 % 13.33 C
119 04-08-2020 09:50:00 17.5 C 77 % 13.43 C
120 04-08-2020 09:55:00 17.6 C 76 % 13.32 C
121 04-08-2020 10:00:00 17.7 C 76 % 13.42 C
122 04-08-2020 10:05:00 17.7 C 76 % 13.42 C
123 04-08-2020 10:10:00 17.5 C 76 % 13.23 C
124 04-08-2020 10:15:00 17.4 C 76 % 13.13 C
125 04-08-2020 10:20:00 17.4 C 77 % 13.33 C
Sensor: Nr:Datum:Temp:Feuchte:Taupunkt:
Aussen-T/F 126 04-08-2020 10:25:00 17.4 C 77 % 13.33 C
127 04-08-2020 10:30:00 17.6 C 78 % 13.72 C
128 04-08-2020 10:35:00 17.7 C 77 % 13.62 C
129 04-08-2020 10:40:00 17.9 C 74 % 13.2 C
130 04-08-2020 10:45:00 18.1 C 74 % 13.4 C
131 04-08-2020 10:50:00 18.4 C 73 % 13.48 C
132 04-08-2020 10:55:00 18.6 C 73 % 13.67 C
133 04-08-2020 11:00:00 18.7 C 71 % 13.34 C
134 04-08-2020 11:05:00 18.8 C 71 % 13.43 C
135 04-08-2020 11:10:00 19 C 72 % 13.84 C
136 04-08-2020 11:15:00 19.2 C 71 % 13.82 C
137 04-08-2020 11:20:00 19.2 C 68 % 13.15 C
138 04-08-2020 11:25:00 19.3 C 69 % 13.47 C
139 04-08-2020 11:30:00 19.2 C 67 % 12.93 C
140 04-08-2020 11:35:00 19.3 C 67 % 13.02 C
141 04-08-2020 11:40:00 19.5 C 67 % 13.21 C
142 04-08-2020 11:45:00 19.6 C 66 % 13.08 C
143 04-08-2020 11:50:00 19.7 C 65 % 12.94 C
144 04-08-2020 11:55:00 19.6 C 65 % 12.84 C
145 04-08-2020 12:00:00 19.7 C 63 % 12.46 C
146 04-08-2020 12:05:00 19.7 C 62 % 12.22 C
147 04-08-2020 12:10:00 19.8 C 62 % 12.31 C
148 04-08-2020 12:15:00 20 C 61 % 12.26 C
149 04-08-2020 12:20:00 19.9 C 61 % 12.16 C
150 04-08-2020 12:25:00 19.8 C 60 % 11.82 C
Sensor: Nr:Datum:Temp:Feuchte:Taupunkt:
Aussen-T/F 151 04-08-2020 12:30:00 19.9 C 61 % 12.16 C
152 04-08-2020 12:35:00 20.1 C 61 % 12.35 C
153 04-08-2020 12:40:00 20.2 C 61 % 12.44 C
154 04-08-2020 12:45:00 20.4 C 58 % 11.86 C
155 04-08-2020 12:50:00 20.6 C 56 % 11.52 C
156 04-08-2020 12:55:00 20.6 C 56 % 11.52 C
157 04-08-2020 13:00:00 20.7 C 54 % 11.07 C
158 04-08-2020 13:05:00 20.8 C 55 % 11.43 C
159 04-08-2020 13:10:00 20.8 C 55 % 11.43 C
160 04-08-2020 13:15:00 21 C 55 % 11.62 C
161 04-08-2020 13:20:00 21.2 C 54 % 11.53 C
162 04-08-2020 13:25:00 21.3 C 54 % 11.62 C
163 04-08-2020 13:30:00 21.3 C 56 % 12.17 C
164 04-08-2020 13:35:00 21.3 C 55 % 11.9 C
165 04-08-2020 13:40:00 21.4 C 52 % 11.14 C
166 04-08-2020 13:45:00 21.5 C 53 % 11.52 C
167 04-08-2020 13:50:00 21.6 C 53 % 11.62 C
168 04-08-2020 13:55:00 21.7 C 51 % 11.13 C
169 04-08-2020 14:00:00 21.8 C 52 % 11.51 C
170 04-08-2020 14:05:00 22 C 51 % 11.4 C
171 04-08-2020 14:10:00 22.1 C 50 % 11.2 C
172 04-08-2020 14:15:00 22.1 C 51 % 11.5 C
173 04-08-2020 14:20:00 22.3 C 50 % 11.38 C
174 04-08-2020 14:25:00 22.3 C 50 % 11.38 C
175 04-08-2020 14:30:00 22.3 C 49 % 11.08 C
Sensor: Nr:Datum:Temp:Feuchte:Taupunkt:
Aussen-T/F 176 04-08-2020 14:35:00 22.3 C 50 % 11.38 C
177 04-08-2020 14:40:00 22.4 C 50 % 11.47 C
178 04-08-2020 14:45:00 22.5 C 49 % 11.26 C
179 04-08-2020 14:50:00 22.6 C 49 % 11.35 C
180 04-08-2020 14:55:00 22.6 C 47 % 10.72 C
181 04-08-2020 15:00:00 22.7 C 48 % 11.13 C
182 04-08-2020 15:05:00 22.9 C 47 % 11 C
183 04-08-2020 15:10:00 23 C 47 % 11.09 C
184 04-08-2020 15:15:00 23.1 C 45 % 10.53 C
185 04-08-2020 15:20:00 23 C 46 % 10.76 C
186 04-08-2020 15:25:00 23 C 46 % 10.76 C
187 04-08-2020 15:30:00 23.2 C 43 % 9.94 C
188 04-08-2020 15:35:00 23.3 C 43 % 10.03 C
189 04-08-2020 15:40:00 23.3 C 43 % 10.03 C
190 04-08-2020 15:45:00 23.7 C 43 % 10.39 C
191 04-08-2020 15:50:00 24.1 C 41 % 10.03 C
192 04-08-2020 15:55:00 24.5 C 40 % 10.02 C
193 04-08-2020 16:00:00 24.7 C 40 % 10.2 C
194 04-08-2020 16:05:00 25 C 40 % 10.47 C
195 04-08-2020 16:10:00 24.9 C 41 % 10.75 C
196 04-08-2020 16:15:00 24.8 C 40 % 10.29 C
197 04-08-2020 16:20:00 24.9 C 40 % 10.38 C
198 04-08-2020 16:25:00 25.2 C 38 % 9.88 C
199 04-08-2020 16:30:00 25.3 C 37 % 9.57 C
200 04-08-2020 16:35:00 25 C 37 % 9.31 C
Sensor: Nr:Datum:Temp:Feuchte:Taupunkt:
Aussen-T/F 201 04-08-2020 16:40:00 24.9 C 39 % 10 C
202 04-08-2020 16:45:00 25.3 C 38 % 9.97 C
203 04-08-2020 16:50:00 25.7 C 39 % 10.71 C
204 04-08-2020 16:55:00 25.8 C 36 % 9.61 C
205 04-08-2020 17:00:00 25.4 C 37 % 9.66 C
206 04-08-2020 17:05:00 25.1 C 39 % 10.18 C
207 04-08-2020 17:10:00 25.2 C 39 % 10.27 C
208 04-08-2020 17:15:00 25.3 C 38 % 9.97 C
209 04-08-2020 17:20:00 25 C 38 % 9.7 C
210 04-08-2020 17:25:00 24.7 C 40 % 10.2 C
211 04-08-2020 17:30:00 24.6 C 39 % 9.73 C
212 04-08-2020 17:35:00 24.4 C 42 % 10.66 C
213 04-08-2020 17:40:00 24.6 C 39 % 9.73 C
214 04-08-2020 17:45:00 24.8 C 39 % 9.91 C
215 04-08-2020 17:50:00 25 C 40 % 10.47 C
216 04-08-2020 17:55:00 25.3 C 38 % 9.97 C
217 04-08-2020 18:00:00 25.3 C 38 % 9.97 C
218 04-08-2020 18:05:00 25.3 C 38 % 9.97 C
219 04-08-2020 18:10:00 25.4 C 37 % 9.66 C
220 04-08-2020 18:15:00 25.3 C 37 % 9.57 C
221 04-08-2020 18:20:00 25.3 C 37 % 9.57 C
222 04-08-2020 18:25:00 25.2 C 38 % 9.88 C
223 04-08-2020 18:30:00 25.2 C 38 % 9.88 C
224 04-08-2020 18:35:00 25.3 C 38 % 9.97 C
225 04-08-2020 18:40:00 25.6 C 38 % 10.23 C
Sensor: Nr:Datum:Temp:Feuchte:Taupunkt:
Aussen-T/F 226 04-08-2020 18:45:00 25.7 C 37 % 9.92 C
227 04-08-2020 18:50:00 25.8 C 40 % 11.18 C
228 04-08-2020 18:55:00 25.9 C 38 % 10.5 C
229 04-08-2020 19:00:00 26 C 37 % 10.19 C
230 04-08-2020 19:05:00 25.8 C 37 % 10.01 C
231 04-08-2020 19:10:00 25.4 C 38 % 10.06 C
232 04-08-2020 19:15:00 24.9 C 38 % 9.61 C
233 04-08-2020 19:20:00 24.6 C 39 % 9.73 C
234 04-08-2020 19:25:00 24.4 C 39 % 9.56 C
235 04-08-2020 19:30:00 24.4 C 40 % 9.93 C
236 04-08-2020 19:35:00 24.4 C 39 % 9.56 C
237 04-08-2020 19:40:00 24.4 C 40 % 9.93 C
238 04-08-2020 19:45:00 24.3 C 40 % 9.84 C
239 04-08-2020 19:50:00 24.2 C 40 % 9.75 C
240 04-08-2020 19:55:00 24.1 C 40 % 9.67 C
241 04-08-2020 20:00:00 23.9 C 39 % 9.11 C
242 04-08-2020 20:05:00 23.8 C 41 % 9.76 C
243 04-08-2020 20:10:00 23.7 C 40 % 9.31 C
244 04-08-2020 20:15:00 23.6 C 41 % 9.59 C
245 04-08-2020 20:20:00 23.3 C 41 % 9.32 C
246 04-08-2020 20:25:00 23.1 C 41 % 9.14 C
247 04-08-2020 20:30:00 22.9 C 42 % 9.32 C
248 04-08-2020 20:35:00 22.8 C 42 % 9.23 C
249 04-08-2020 20:40:00 22.7 C 48 % 11.13 C
250 04-08-2020 20:45:00 22.4 C 49 % 11.17 C
Sensor: Nr:Datum:Temp:Feuchte:Taupunkt:
Aussen-T/F 251 04-08-2020 20:50:00 21.9 C 51 % 11.31 C
252 04-08-2020 20:55:00 21.4 C 52 % 11.14 C
253 04-08-2020 21:00:00 20.8 C 53 % 10.88 C
254 04-08-2020 21:05:00 20.3 C 53 % 10.41 C
255 04-08-2020 21:10:00 19.8 C 55 % 10.51 C
256 04-08-2020 21:15:00 19.4 C 56 % 10.4 C
257 04-08-2020 21:20:00 19.1 C 57 % 10.39 C
258 04-08-2020 21:25:00 18.8 C 58 % 10.37 C
259 04-08-2020 21:30:00 18.6 C 59 % 10.44 C
260 04-08-2020 21:35:00 18.3 C 59 % 10.16 C
261 04-08-2020 21:40:00 18.1 C 60 % 10.22 C
262 04-08-2020 21:45:00 17.9 C 60 % 10.03 C
263 04-08-2020 21:50:00 17.7 C 62 % 10.33 C
264 04-08-2020 21:55:00 17.6 C 61 % 10 C
265 04-08-2020 22:00:00 17.4 C 61 % 9.81 C
266 04-08-2020 22:05:00 17.3 C 61 % 9.71 C
267 04-08-2020 22:10:00 17.2 C 62 % 9.86 C
268 04-08-2020 22:15:00 17.1 C 63 % 10.01 C
269 04-08-2020 22:20:00 17 C 64 % 10.15 C
270 04-08-2020 22:25:00 16.9 C 64 % 10.05 C
271 04-08-2020 22:30:00 16.8 C 64 % 9.96 C
272 04-08-2020 22:35:00 16.7 C 64 % 9.86 C
273 04-08-2020 22:40:00 16.6 C 66 % 10.23 C
274 04-08-2020 22:45:00 16.4 C 66 % 10.04 C
275 04-08-2020 22:50:00 16.3 C 67 % 10.17 C
Sensor: Nr:Datum:Temp:Feuchte:Taupunkt:
Aussen-T/F 276 04-08-2020 22:55:00 16.2 C 68 % 10.29 C
277 04-08-2020 23:00:00 16.1 C 69 % 10.42 C
278 04-08-2020 23:05:00 15.8 C 69 % 10.13 C
279 04-08-2020 23:10:00 15.7 C 69 % 10.03 C
280 04-08-2020 23:15:00 15.6 C 70 % 10.15 C
281 04-08-2020 23:20:00 15.3 C 71 % 10.08 C
282 04-08-2020 23:25:00 15.2 C 72 % 10.19 C
283 04-08-2020 23:30:00 15 C 73 % 10.2 C
284 04-08-2020 23:35:00 14.8 C 74 % 10.22 C
285 04-08-2020 23:40:00 14.7 C 74 % 10.12 C
286 04-08-2020 23:45:00 14.6 C 75 % 10.22 C
287 04-08-2020 23:50:00 14.4 C 75 % 10.03 C
288 04-08-2020 23:55:00 14.3 C 75 % 9.93 C

Legende:
   Min
   Max


Maximal/Minimal-Werte vom 23.02.2003 - 19.08.2019

Sensor Min Max Avg
Temp
(Aussen-T/F)
-16.4 °C
20-12-2009  01:30:01
40.4 °C
25-07-2019  16:20:00
11.22 °C
Feuchte
(Aussen-T/F)
18 %
17-07-2015  15:55:00
100 %
07-10-2012  03:05:00
76.99 %

Die Daten stammen von einer Davis Vantage Pro 2 Wetter-Station und werden unter Linux mit der Software wview2wettercgi und aufbereitet. Alle Angaben erfolgen ohne Gewähr für ihre Vollständigkeit oder Richtigkeit.
Kontakt: Rainer Krienke krienke@uni-koblenz.de . Meine Webseiten an der Uni Koblenz oder privat.
Version: $Revision: 0.78 $